Orbital Elements at Epoch 2459000.5 (2020-May-31.0) TDB
Reference: JPL 14 (heliocentric ecliptic J2000)
Element | Value | Uncertainty (1-sigma) | Units |
e | .1330018897117799 | 7.0213e-08 | |
a | 3.09589927851475 | 6.5826e-08 | au |
q | 2.684138824114952 | 2.5439e-07 | au |
i | 12.67957635341238 | 1.5614e-05 | deg |
node | 205.9625572808303 | 3.4714e-05 | deg |
peri | 60.28449383727212 | 9.3888e-05 | deg |
M | 212.4600795250596 | 9.1855e-05 | deg |
tp | 2459815.928160555827 (2022-Aug-24.42816056) | 0.00052746 | TDB |
period | 1989.659048582433 5.45 | 6.3457e-05 1.737e-07 | d yr |
n | .1809355227251062 | 5.7706e-09 | deg/d |
Q | 3.507659732914548 | 7.4581e-08 | au |
|
| | Orbit Determination Parameters
Additional Information
|